This is the latest recevied weather packets stored in our database for station/object N5DGC. If no packets are shown the sender has not sent any weather packets the latest 10 day(s).
| Time | Temp. | Humidity | Pressure | Rain* | Wind** | Luminosity | Snow |
|---|---|---|---|---|---|---|---|
| 1788530063 | 20.56° C | 54% | 1241.1 hPa | 0 mm | - | 65 W/m² | - |
| 1788529759 | 20.56° C | 54% | 1240.8 hPa | 0 mm | - | 51 W/m² | - |
| 1788529459 | 20.56° C | 54% | 1240.9 hPa | 0 mm | - | 42 W/m² | - |
| 1788529165 | 20.56° C | 53% | 1240.9 hPa | 0 mm | - | 28 W/m² | - |
| 1788528854 | 20.56° C | 54% | 1240.9 hPa | 0 mm | - | 30 W/m² | - |
| 1788528549 | 20° C | 55% | 1240.9 hPa | 0 mm | - | 29 W/m² | - |
| 1788528245 | 20° C | 55% | 1240.5 hPa | 0 mm | - | 26 W/m² | - |
| 1788527944 | 20° C | 55% | 1240.4 hPa | 0 mm | - | 20 W/m² | - |
| 1788527639 | 20° C | 55% | 1240.3 hPa | 0 mm | - | 18 W/m² | - |
| 1788527335 | 20° C | 55% | 1240.3 hPa | 0 mm | - | 13 W/m² | - |
| 1788527034 | 20° C | 54% | 1240.2 hPa | 0 mm | - | 11 W/m² | - |
| 1788526729 | 20° C | 54% | 1240 hPa | 0 mm | - | 8 W/m² | - |
| 1788526425 | 20° C | 54% | 1240.1 hPa | 0 mm | - | 6 W/m² | - |
| 1788526124 | 20° C | 54% | 1239.8 hPa | 0 mm | - | 4 W/m² | - |
| 1788525821 | 20° C | 54% | 1239.7 hPa | 0 mm | - | 2 W/m² | - |
| 1788525516 | 20° C | 54% | 1239.6 hPa | 0 mm | - | 1 W/m² | - |
| 1788525212 | 20° C | 54% | 1239.7 hPa | 0 mm | - | 1 W/m² | - |
| 1788524907 | 20° C | 54% | 1239.5 hPa | 0 mm | - | 0 W/m² | - |
| 1788524606 | 20° C | 54% | 1239.7 hPa | 0 mm | - | 0 W/m² | - |
| 1788524301 | 20° C | 54% | 1239.6 hPa | 0 mm | - | 0 W/m² | - |
| 1788523997 | 20° C | 54% | 1239.3 hPa | 0 mm | - | 0 W/m² | - |
| 1788523694 | 20° C | 53% | 1239.3 hPa | 0 mm | - | 0 W/m² | - |
| 1788523389 | 20.56° C | 53% | 1239.4 hPa | 0 mm | - | 0 W/m² | - |
| 1788523084 | 20° C | 54% | 1239.4 hPa | 0 mm | - | 0 W/m² | - |
| 1788522780 | 20° C | 55% | 1239.3 hPa | 0 mm | - | 0 W/m² | - |
* Rain latest hour (hover to see other rain measurements)
** Current wind speed in m/s (hover to see current wind gust speed)